User: anonymous   Login
Location: Maiden
(35.5760°N, 81.2120°W)
Time: 01:36:11
(UTC-04:00)
Language:

Cosmos 2151 - Orbit

View from above orbital plane
View from above orbital plane
View from above satellite
View from above satellite

Ground track
Ground track

The orbit data is extracted from the following two-line orbital elements,

1 21422U 91042A   16244.36161332  .00000306  00000-0  27828-4 0  9999
2 21422  82.5030 162.2238 0014216 175.8132 184.3209 14.91680875365297
Epoch (UTC): 31 August 2016 08:40:43
Eccentricity: 0.0014216
inclination: 82.5030°
perigee height: 583 km
apogee height: 602 km
right ascension of ascending node: 162.2238°
argument of perigee: 175.8132°
revolutions per day: 14.91680875
mean anomaly at epoch: 184.3209°
orbit number at epoch: 36529

The dashed part of the orbit path shows where the satellite is in the earth's shadow,  

DLR